Location: ??
(35.3025°N, 139.5731°E)
Time: 22:04:30
(UTC+00:00)

Daily predictions for brighter satellites

Satellite Brightness Start Highest point End
(mag) Time Altitude Azimuth Time Altitude Azimuth Time Altitude Azimuth
CZ-3 R/B 4.4 15:31:43 10° W 16:43:38 56° SE 16:52:52 10° ESE
Cosmos 1980 Rocket 3.9 18:46:38 23° SSE 18:46:38 23° SSE 18:48:40 10° SSE
Cosmos 2369 4.3 18:56:37 54° E 18:56:37 54° E 19:01:39 10° SE
Cosmos 1937 Rocket 4.3 19:12:25 39° NNE 19:13:34 45° ENE 19:18:28 10° SE
Cosmos 2333 Rocket 4.1 19:18:06 11° N 19:22:32 26° ENE 19:27:17 10° ESE
Aureole 1 Rocket 4.2 19:23:53 51° NW 19:25:50 72° WSW 19:33:08 10° S
CZ-3 Stage 3 4.2 19:26:49 38° WSW 19:32:04 65° S 20:11:31 10° ESE
Cosmos 2322 Rocket 4.0 19:34:58 10° N 19:39:46 27° ENE 19:44:30 10° ESE
USA 59 Rocket 0.0 19:39:45 78° W 19:39:53 79° WSW 19:45:30 10° SSE
NOSS 2-1 (D) 3.4 19:40:35 80° NW 19:40:48 86° WSW 19:46:20 10° SSE
COSMOS 2455 2.8 19:40:12 53° WNW 19:41:26 66° WSW 19:47:20 10° SSE
Cosmos 2026 Rocket 3.8 19:43:05 10° S 19:49:08 89° WNW 19:55:15 10° N
SKYMED 2 4.1 19:45:27 10° SSE 19:49:42 59° ENE 19:53:13 15° N
Cosmos 2058 Rocket 4.1 19:48:13 10° N 19:52:28 45° E 19:56:38 10° SSE
SWAS 4.3 19:53:35 58° SW 19:53:35 58° SW 19:57:15 10° S
NOSS 2-1 (E) 3.5 19:54:01 54° NW 19:54:58 80° WSW 20:00:28 10° SSE
[s.n.66875] 4.2 19:55:08 13° SSE 19:56:01 15° SE 19:57:40 10° ESE
[s.n.66873] 4.2 19:55:49 13° SSE 19:56:45 16° SE 19:58:25 10° ESE
[s.n.66876] 4.2 19:56:18 13° SSE 19:57:14 16° SE 19:58:55 10° E
[s.n.66874] 4.2 19:57:04 14° S 19:58:03 16° SE 19:59:46 10° E
[s.n.66872] 4.1 19:57:51 14° S 19:58:52 16° SE 20:00:37 10° E
[s.n.66871] 4.1 19:58:23 14° S 19:59:26 17° SE 20:01:12 10° E
[s.n.66870] 4.1 19:59:11 14° S 20:00:17 17° SE 20:02:05 10° E
[s.n.66869] 4.1 19:59:59 14° S 20:01:06 17° SE 20:02:55 10° E
[s.n.66868] 4.1 20:00:36 14° S 20:01:44 17° SE 20:03:34 10° E
Meteor 2-3 Rocket 3.9 19:56:39 10° SSW 20:02:11 49° WNW 20:07:42 10° N
[s.n.66867] 4.1 20:01:22 14° S 20:02:33 18° SE 20:04:25 10° E
COSMOS 2406 4.5 20:04:52 22° NNW 20:04:52 22° NNW 20:07:39 10° N
[s.n.66866] 4.1 20:02:05 14° S 20:03:19 18° SE 20:05:12 10° E
Cosmos 1606 Rocket 4.1 20:03:57 37° WSW 20:03:57 37° WSW 20:07:26 10° SSW
Cosmos 2237 4.3 20:01:01 32° NW 20:03:26 55° WSW 20:08:56 10° S
[s.n.66865] 4.0 20:02:38 14° S 20:03:52 18° SE 20:05:47 10° E
NOAA 12 4.0 19:59:04 10° N 20:04:18 69° WNW 20:09:29 10° SSW
Cosmos 1484 Rocket 4.1 20:01:22 10° NNE 20:04:31 35° E 20:07:36 10° SSE
[s.n.66860] 4.0 20:03:17 14° S 20:04:34 19° SE 20:06:29 10° E
[s.n.66864] 4.0 20:03:55 14° S 20:05:12 19° SE 20:07:09 10° E
ATLAS 2AS CENTAUR R/B 3.3 19:58:21 10° SSW 20:05:20 60° ESE 20:12:09 10° NE
[s.n.66863] 4.0 20:04:29 14° S 20:05:49 19° SE 20:07:47 10° E
[s.n.66861] 4.0 20:05:19 14° S 20:06:40 20° SE 20:08:40 10° E
ISS -0.5 20:05:30 10° SSE 20:07:09 13° SE 20:08:48 10° E
[s.n.66862] 4.0 20:05:56 14° S 20:07:20 20° SE 20:09:21 10° E
[s.n.66859] 3.9 20:06:38 14° S 20:08:03 20° SE 20:10:05 10° E
[s.n.66858] 3.9 20:07:16 14° S 20:08:44 21° SE 20:10:48 10° E
SL-16 R/B 2.2 20:04:19 16° NNW 20:09:00 88° ENE 20:14:40 10° SSE
[s.n.66857] 3.9 20:07:51 14° S 20:09:20 21° SE 20:11:24 10° E
[s.n.66856] 3.9 20:08:24 14° S 20:09:55 21° SE 20:11:59 10° E
[s.n.66855] 3.8 20:09:04 13° S 20:10:37 22° SE 20:12:42 10° E
Tiangong -1.0 20:10:48 31° SW 20:10:53 31° SSW 20:13:46 10° SSE
[s.n.66854] 3.8 20:09:38 13° S 20:11:13 22° SE 20:13:19 10° E
Helios 1A Rocket 3.2 20:08:02 10° SSE 20:11:16 50° ENE 20:14:31 10° N
Centaur D-1AR AC-48 4.4 19:56:27 12° WSW 20:11:40 33° SSW 20:16:26 10° SE
[s.n.66853] 3.8 20:10:21 13° SSW 20:11:57 22° SE 20:14:05 10° E
Meteor 1-26 Rocket 4.3 20:07:00 10° N 20:12:38 79° E 20:18:25 10° S
[s.n.66852] 3.8 20:11:06 13° SSW 20:12:44 23° SE 20:14:52 10° E
NOSS 2-1 (C) 4.1 20:11:33 35° WNW 20:12:49 44° WSW 20:18:09 10° S
[s.n.66851] 3.7 20:11:37 13° SSW 20:13:16 23° SE 20:15:25 10° E
[s.n.66850] 3.7 20:12:08 13° SSW 20:13:50 23° SE 20:16:00 10° E
[s.n.66849] 3.7 20:12:51 13° SSW 20:14:33 24° SE 20:16:44 10° E
[s.n.66848] 3.7 20:13:22 13° SSW 20:15:06 24° SE 20:17:18 10° E
Cosmos 405 Rocket 2.5 20:13:43 10° S 20:16:56 70° E 20:20:11 10° NNE
YAOGAN 20A 4.5 20:11:51 10° SW 20:17:18 79° WNW 20:23:12 10° NNE
Cosmos 1758 Rocket 4.2 20:13:08 10° S 20:17:29 59° E 20:21:48 10° NNE
Cosmos 1092 Rocket 4.0 20:12:12 10° SSW 20:18:22 59° W 20:24:31 10° N
EPKM 4.1 20:17:42 12° SW 20:19:20 15° SSW 20:20:51 10° SSE
YAOGAN 20B 4.5 20:13:54 10° SW 20:19:21 81° WNW 20:25:14 10° NNE
CZ-3 R/B 3.9 20:12:23 17° W 20:22:29 28° SW 20:29:11 10° S
OAO 2 Rocket 3.4 20:19:23 21° WSW 20:22:55 77° S 20:28:03 10° E
RUBIN 8/PSLV 4.4 20:19:11 10° N 20:23:27 70° WNW 20:27:39 10° SSW
Centaur D AC-28 4.5 20:21:45 13° WSW 20:25:24 16° SW 20:28:40 10° S
Cosmos 1726 Rocket 4.3 20:26:19 25° WNW 20:27:09 27° W 20:30:40 10° SSW
NOSS 3-1 (A) 4.4 20:20:05 10° NNW 20:27:48 77° ENE 20:37:07 10° SE
Okean 1 2.9 20:28:17 10° NNW 20:31:50 72° W 20:35:22 10° S
SL-4 R/B 3.9 20:31:44 10° N 20:33:32 14° NNE 20:35:19 10° ENE
Cosmos 2278 3.7 20:28:14 10° NNW 20:33:49 66° WSW 20:39:22 10° S
SL-08 ROCKET BODY 4.3 20:29:19 10° S 20:35:10 90° W 20:41:01 10° N
COSMO-SKYMED 1 2.5 20:31:37 10° S 20:35:39 58° W 20:39:44 10° NNW
Cosmos-2242 3.1 20:34:27 10° NNW 20:38:32 51° W 20:42:34 10° S
Cosmos 1626 Rocket 3.5 20:35:15 10° SSW 20:39:36 61° W 20:43:58 10° N
OAO 3 Copernicus 4.3 20:37:48 16° W 20:41:47 88° S 20:46:49 10° E
OAO 3 Rocket 3.3 20:37:51 12° WSW 20:42:12 72° SSE 20:46:54 10° E
Centaur AC-119 4.2 20:39:02 10° WSW 20:43:29 30° S 20:47:42 10° ESE
Cosmos 2266 Rocket 4.4 20:41:43 10° S 20:48:02 70° E 20:54:20 10° NNE
IGS 5A 3.3 20:46:27 10° N 20:50:23 60° WNW 20:54:20 10° SSW
ATLAS CENTAUR Rocket 4.1 20:52:35 10° WSW 20:57:46 57° S 21:23:13 10° E
Cosmos 2360 Rocket 2.2 20:53:45 10° NNW 20:59:21 71° WSW 21:04:55 10° SSE
Cosmos 2333 Rocket 2.8 21:01:35 10° NW 21:06:53 39° WSW 21:12:07 10° S
ARIANE 5 R/B 2.9 21:06:31 10° NNE 21:11:45 72° ESE 21:16:56 10° S
Cosmos 2219 Rocket 2.3 21:10:05 10° NNW 21:15:46 90° WSW 21:21:22 10° SSE
